This is the latest recevied weather packets stored in our database for station/object CQ0XVC-11. If no packets are shown the sender has not sent any weather packets the latest 10 day(s).
| Time | Temp. | Humidity | Pressure | Rain* | Wind** | Luminosity | Snow |
|---|---|---|---|---|---|---|---|
| 1777937297 | 8.89° C | 65% | 1005.3 hPa | 0 mm | - | - | - |
| 1777937228 | 8.89° C | 65% | 1005.3 hPa | 0 mm | - | - | - |
| 1777936926 | 8.89° C | 66% | 1005.2 hPa | 0 mm | - | - | - |
| 1777936683 | 8.89° C | 65% | 1005.3 hPa | 0 mm | - | - | - |
| 1777936624 | 8.89° C | 65% | 1005.3 hPa | 0 mm | - | - | - |
| 1777936079 | 8.89° C | 67% | 1005.3 hPa | 0 mm | - | - | - |
| 1777936020 | 8.89° C | 67% | 1005.3 hPa | 0 mm | - | - | - |
| 1777935717 | 8.89° C | 67% | 1005.3 hPa | 0 mm | - | - | - |
| 1777935460 | 8.89° C | 65% | 1005.2 hPa | 0 mm | - | - | - |
| 1777935415 | 8.89° C | 65% | 1005.2 hPa | 0 mm | - | - | - |
| 1777935144 | 8.89° C | 64% | 1005.1 hPa | 0 mm | - | - | - |
| 1777935113 | 8.89° C | 64% | 1005.1 hPa | 0 mm | - | - | - |
| 1777934845 | 9.44° C | 64% | 1005.2 hPa | 0 mm | - | - | - |
| 1777934811 | 9.44° C | 64% | 1005.2 hPa | 0 mm | - | - | - |
| 1777934548 | 9.44° C | 64% | 1005.2 hPa | 0 mm | - | - | - |
| 1777934508 | 9.44° C | 64% | 1005.2 hPa | 0 mm | - | - | - |
| 1777934252 | 9.44° C | 65% | 1005.1 hPa | 0 mm | - | - | - |
| 1777934207 | 9.44° C | 65% | 1005.1 hPa | 0 mm | - | - | - |
| 1777933944 | 10° C | 66% | 1005.1 hPa | 0 mm | - | - | - |
| 1777933904 | 10° C | 66% | 1005.1 hPa | 0 mm | - | - | - |
| 1777933602 | 10° C | 62% | 1005.1 hPa | 0 mm | - | - | - |
| 1777933299 | 10° C | 61% | 1005.3 hPa | 0 mm | - | - | - |
| 1777933031 | 10° C | 62% | 1005.1 hPa | 0 mm | - | - | - |
| 1777932998 | 10° C | 62% | 1005.1 hPa | 0 mm | - | - | - |
| 1777932696 | 10° C | 62% | 1005.1 hPa | 0 mm | - | - | - |
* Rain since midnight (hover to see other rain measurements)
** Current wind speed in m/s (hover to see current wind gust speed)